Regional Weather Roundup
Issued by NWS

Home | Current Version | Previous Version | Graphics & Text | Print | Product List | Glossary On
Versions: 1 2 3 4 5 6 7 8 9 10 11 12 13 14 15 16 17 18 19 20 21 22 23 24 25 26 27 28 29 30 31 32 33 34 35 36 37 38 39 40 41 42 43 44 45 46 47 48 49 50
000
ASUS44 KMEG 310710
RWRTN
TENNESSEE HOURLY STATE WEATHER ROUNDUP
NATIONAL WEATHER SERVICE MEMPHIS TN
200 AM CDT TUE MAY 31 2016

TNZ002-004-019-021-049-052-054-088>092-310800-
WEST TENNESSEE

CITY           SKY/WX    TMP DP  RH WIND       PRES   REMARKS
MEMPHIS INTL   CLOUDY    71  66  84 NW5       29.95F
NWS MEMPHIS      N/A     71 N/A N/A MISG        N/A
JACKSON        CLOUDY    69  66  90 CALM      29.94F
DYERSBURG      MOCLDY    70  66  88 CALM      29.95S
UNION CITY     CLEAR     66  66 100 CALM      29.94S
PARIS          CLEAR     64  61  88 CALM      29.96F
LEXINGTON      CLEAR     64  64 100 CALM      29.95R
$$

TNZ008-025-027-028-033-062-065-066-310800-
NORTH MIDDLE TENNESSEE

CITY           SKY/WX    TMP DP  RH WIND       PRES   REMARKS
NASHVILLE      CLOUDY    68  60  75 CALM      29.96S
CLARKSVILLE    CLOUDY    66  62  87 CALM      29.95F
SMYRNA         CLOUDY    64  62  93 CALM      29.96F
COOKEVILLE     CLEAR     59  59 100 CALM      29.96F
CROSSVILLE     CLEAR     62  58  86 CALM      30.02F
$$

TNZ061-075-076-078-094-096-097-310800-
SOUTH MIDDLE TENNESSEE

CITY           SKY/WX    TMP DP  RH WIND       PRES   REMARKS
FAYETTEVILLE   CLEAR     68  59  73 NE3       29.96S
TULLAHOMA      CLEAR     61  59  94 CALM      29.98F
WINCHESTER     CLEAR     63  59  88 CALM      29.97F
MCMINNVILLE    CLEAR     61  61 100 CALM      29.97F
COLUMBIA       CLEAR    N/A N/A N/A CALM      29.94F
SHELBYVILLE    CLEAR     63  61  94 CALM      29.97S
$$

TNZ017-018-042-046-047-310800-
NORTHEAST TENNESSEE

CITY           SKY/WX    TMP DP  RH WIND       PRES   REMARKS
TRI CITIES     CLEAR     61  60  97 CALM      30.00F FOG
$$

TNZ012-013-036-069-073-074-310800-
CENTRAL EAST TENNESSEE

CITY           SKY/WX    TMP DP  RH WIND       PRES   REMARKS
KNOXVILLE      CLEAR     64  63  96 NE6       29.96F
OAK RIDGE      CLEAR     66  63  90 CALM      29.98F
GATLINBURG     CLEAR     61  59  94 CALM      29.97S
$$

TNZ083-085-099-310800-
SOUTHEAST TENNESSEE

CITY           SKY/WX    TMP DP  RH WIND       PRES   REMARKS
CHATTANOOGA    CLEAR     68  61  78 CALM      29.95S
$$

SKY/WX REPORTED AS FAIR MEANS FEW OR NO CLOUDS BELOW
12 THOUSAND FEET.





USA.gov is the U.S. government's official web portal to all federal, state and local government web resources and services.